Time,TemperatureF,DewpointF,PressureIn,WindDirection,WindDirectionDegrees,WindSpeedMPH,WindSpeedGustMPH,Humidity,HourlyPrecipIn,Conditions,Clouds,dailyrainin,SoftwareType,DateUTC
2013-09-10 00:03:00,80.2,64.0,29.27,SW,236,0.0,4.0,58,0.00,,,0.00,meteohub,2013-09-10 05:03:00,
2013-09-10 00:08:00,80.2,64.6,29.27,SW,236,0.0,5.0,59,0.00,,,0.00,meteohub,2013-09-10 05:08:00,
2013-09-10 00:13:00,80.1,64.4,29.27,SW,217,0.0,5.0,59,0.00,,,0.00,meteohub,2013-09-10 05:13:00,
2013-09-10 00:18:00,79.9,64.2,29.27,West,268,0.0,5.0,59,0.00,,,0.00,meteohub,2013-09-10 05:18:00,
2013-09-10 00:23:00,79.7,64.6,29.28,SW,216,0.0,3.0,60,0.00,,,0.00,meteohub,2013-09-10 05:23:00,
2013-09-10 00:28:00,79.5,64.4,29.28,South,186,4.0,4.0,60,0.00,,,0.00,meteohub,2013-09-10 05:28:00,
2013-09-10 00:33:00,79.3,64.2,29.28,WSW,241,0.0,5.0,60,0.00,,,0.00,meteohub,2013-09-10 05:33:00,
2013-09-10 00:38:00,79.3,64.8,29.28,SW,235,4.0,6.0,61,0.00,,,0.00,meteohub,2013-09-10 05:38:00,
2013-09-10 00:44:00,79.3,64.8,29.28,SW,227,0.0,7.0,61,0.00,,,0.00,meteohub,2013-09-10 05:44:00,
2013-09-10 00:49:00,79.2,64.6,29.28,SW,219,0.0,7.0,61,0.00,,,0.00,meteohub,2013-09-10 05:49:00,
2013-09-10 00:54:00,79.2,64.6,29.28,SW,224,0.0,7.0,61,0.00,,,0.00,meteohub,2013-09-10 05:54:00,
2013-09-10 00:59:00,79.0,64.8,29.28,SW,234,0.0,7.0,62,0.00,,,0.00,meteohub,2013-09-10 05:59:00,
2013-09-10 01:04:00,78.6,64.6,29.29,SW,215,0.0,6.0,62,0.00,,,0.00,meteohub,2013-09-10 06:04:00,
2013-09-10 01:09:00,78.6,64.6,29.28,SW,225,1.0,6.0,62,0.00,,,0.00,meteohub,2013-09-10 06:09:00,
2013-09-10 01:14:00,78.4,64.8,29.29,SW,225,0.0,5.0,63,0.00,,,0.00,meteohub,2013-09-10 06:14:00,
2013-09-10 01:19:00,78.3,64.6,29.29,SW,218,0.0,5.0,63,0.00,,,0.00,meteohub,2013-09-10 06:19:00,
2013-09-10 01:24:00,78.1,64.4,29.29,SW,218,0.0,4.0,63,0.00,,,0.00,meteohub,2013-09-10 06:24:00,
2013-09-10 01:29:00,78.1,64.9,29.29,SW,219,0.0,4.0,64,0.00,,,0.00,meteohub,2013-09-10 06:29:00,
2013-09-10 01:34:00,77.7,64.6,29.29,SW,226,0.0,4.0,64,0.00,,,0.00,meteohub,2013-09-10 06:34:00,
2013-09-10 01:39:00,77.5,64.4,29.29,SSW,209,2.0,4.0,64,0.00,,,0.00,meteohub,2013-09-10 06:39:00,
2013-09-10 01:44:00,77.5,64.4,29.29,SW,234,0.0,4.0,64,0.00,,,0.00,meteohub,2013-09-10 06:44:00,
2013-09-10 01:49:00,77.4,64.8,29.29,SW,215,1.0,4.0,65,0.00,,,0.00,meteohub,2013-09-10 06:49:00,
2013-09-10 01:54:00,77.4,64.8,29.29,SW,221,0.0,4.0,65,0.00,,,0.00,meteohub,2013-09-10 06:54:00,
2013-09-10 02:00:00,77.2,64.6,29.29,SSW,207,0.0,4.0,65,0.00,,,0.00,meteohub,2013-09-10 07:00:00,
2013-09-10 02:05:00,77.2,64.6,29.29,SSW,209,0.0,4.0,65,0.00,,,0.00,meteohub,2013-09-10 07:05:00,
2013-09-10 02:10:00,77.0,64.8,29.29,SW,223,0.0,2.0,66,0.00,,,0.00,meteohub,2013-09-10 07:10:00,
2013-09-10 02:15:00,76.8,64.6,29.29,SW,231,0.0,3.0,66,0.00,,,0.00,meteohub,2013-09-10 07:15:00,
2013-09-10 02:20:00,76.8,64.6,29.29,SW,234,2.0,3.0,66,0.00,,,0.00,meteohub,2013-09-10 07:20:00,
2013-09-10 02:25:00,76.8,64.6,29.30,SW,234,0.0,4.0,66,0.00,,,0.00,meteohub,2013-09-10 07:25:00,
2013-09-10 02:30:00,76.8,64.6,29.29,SW,221,0.0,5.0,66,0.00,,,0.00,meteohub,2013-09-10 07:30:00,
2013-09-10 02:35:00,76.8,64.6,29.30,SW,235,0.0,5.0,66,0.00,,,0.00,meteohub,2013-09-10 07:35:00,
2013-09-10 02:40:00,76.8,64.6,29.29,SW,223,0.0,5.0,66,0.00,,,0.00,meteohub,2013-09-10 07:40:00,
2013-09-10 02:45:00,76.8,64.6,29.30,SW,218,0.0,5.0,66,0.00,,,0.00,meteohub,2013-09-10 07:45:00,
2013-09-10 02:50:00,76.8,64.6,29.30,SW,224,0.0,5.0,66,0.00,,,0.00,meteohub,2013-09-10 07:50:00,
2013-09-10 02:55:00,76.8,64.6,29.30,SW,220,2.0,5.0,66,0.00,,,0.00,meteohub,2013-09-10 07:55:00,
2013-09-10 03:00:00,76.8,64.6,29.30,SW,231,0.0,4.0,66,0.00,,,0.00,meteohub,2013-09-10 08:00:00,
2013-09-10 03:05:00,76.8,64.6,29.30,SW,229,0.0,5.0,66,0.00,,,0.00,meteohub,2013-09-10 08:05:00,
2013-09-10 03:10:00,76.8,64.6,29.30,SW,227,0.0,5.0,66,0.00,,,0.00,meteohub,2013-09-10 08:10:00,
2013-09-10 03:15:00,76.6,64.9,29.30,SW,227,0.0,3.0,67,0.00,,,0.00,meteohub,2013-09-10 08:15:00,
2013-09-10 03:20:00,76.6,64.9,29.30,SW,229,0.0,3.0,67,0.00,,,0.00,meteohub,2013-09-10 08:20:00,
2013-09-10 03:25:00,76.6,64.9,29.30,SW,229,0.0,4.0,67,0.00,,,0.00,meteohub,2013-09-10 08:25:00,
2013-09-10 03:30:00,76.6,64.9,29.29,SW,223,0.0,4.0,67,0.00,,,0.00,meteohub,2013-09-10 08:30:00,
2013-09-10 03:35:00,76.5,64.8,29.30,SW,223,0.0,5.0,67,0.00,,,0.00,meteohub,2013-09-10 08:35:00,
2013-09-10 03:40:00,76.5,65.1,29.30,SW,222,2.0,5.0,68,0.00,,,0.00,meteohub,2013-09-10 08:40:00,
2013-09-10 03:45:00,76.5,65.1,29.30,SSW,200,0.0,4.0,68,0.00,,,0.00,meteohub,2013-09-10 08:45:00,
2013-09-10 03:50:00,76.5,65.1,29.30,SSW,205,0.0,4.0,68,0.00,,,0.00,meteohub,2013-09-10 08:50:00,
2013-09-10 03:55:00,76.3,64.9,29.30,SSW,202,0.0,5.0,68,0.00,,,0.00,meteohub,2013-09-10 08:55:00,
2013-09-10 04:00:00,76.3,64.9,29.30,SSW,207,0.0,5.0,68,0.00,,,0.00,meteohub,2013-09-10 09:00:00,
2013-09-10 04:05:00,76.1,64.8,29.30,SSW,211,0.0,3.0,68,0.00,,,0.00,meteohub,2013-09-10 09:05:00,
2013-09-10 04:10:00,76.1,65.1,29.30,SSW,213,0.0,4.0,69,0.00,,,0.00,meteohub,2013-09-10 09:10:00,
2013-09-10 04:15:00,75.9,64.9,29.31,SSW,213,1.0,4.0,69,0.00,,,0.00,meteohub,2013-09-10 09:15:00,
2013-09-10 04:20:00,75.9,64.9,29.30,SW,214,0.0,3.0,69,0.00,,,0.00,meteohub,2013-09-10 09:20:00,
2013-09-10 04:26:00,75.7,64.8,29.31,SW,215,0.0,4.0,69,0.00,,,0.00,meteohub,2013-09-10 09:26:00,
2013-09-10 04:31:00,75.7,64.8,29.31,SSW,213,0.0,4.0,69,0.00,,,0.00,meteohub,2013-09-10 09:31:00,
2013-09-10 04:36:00,75.6,65.1,29.31,SSW,213,1.0,4.0,70,0.00,,,0.00,meteohub,2013-09-10 09:36:00,
2013-09-10 04:41:00,75.4,64.9,29.31,SSW,210,0.0,4.0,70,0.00,,,0.00,meteohub,2013-09-10 09:41:00,
2013-09-10 04:46:00,75.2,65.1,29.31,SSW,201,0.0,3.0,71,0.00,,,0.00,meteohub,2013-09-10 09:46:00,
2013-09-10 04:51:00,75.0,64.9,29.31,SSW,202,0.0,3.0,71,0.00,,,0.00,meteohub,2013-09-10 09:51:00,
2013-09-10 04:56:00,74.8,64.8,29.32,SSW,205,0.0,3.0,71,0.00,,,0.00,meteohub,2013-09-10 09:56:00,
2013-09-10 05:01:00,74.8,65.1,29.31,SSW,207,1.0,5.0,72,0.00,,,0.00,meteohub,2013-09-10 10:01:00,
2013-09-10 05:06:00,74.7,65.1,29.32,WSW,238,0.0,5.0,72,0.00,,,0.00,meteohub,2013-09-10 10:06:00,
2013-09-10 05:11:00,74.5,65.3,29.32,SSW,202,0.0,5.0,73,0.00,,,0.00,meteohub,2013-09-10 10:11:00,
2013-09-10 05:16:00,74.5,65.3,29.32,SSW,212,0.0,5.0,73,0.00,,,0.00,meteohub,2013-09-10 10:16:00,
2013-09-10 05:21:00,74.3,65.1,29.32,SSW,209,2.0,5.0,73,0.00,,,0.00,meteohub,2013-09-10 10:21:00,
2013-09-10 05:26:00,74.1,64.9,29.33,SSW,210,0.0,5.0,73,0.00,,,0.00,meteohub,2013-09-10 10:26:00,
2013-09-10 05:31:00,74.1,64.9,29.33,SW,215,0.0,5.0,73,0.00,,,0.00,meteohub,2013-09-10 10:31:00,
2013-09-10 05:36:00,73.9,65.1,29.32,SSW,207,0.0,5.0,74,0.00,,,0.00,meteohub,2013-09-10 10:36:00,
2013-09-10 05:41:00,73.9,65.1,29.33,SW,216,0.0,5.0,74,0.00,,,0.00,meteohub,2013-09-10 10:41:00,
2013-09-10 05:46:00,73.9,65.1,29.33,SSW,204,0.0,5.0,74,0.00,,,0.00,meteohub,2013-09-10 10:46:00,
2013-09-10 05:51:00,73.8,64.9,29.33,SW,215,3.0,5.0,74,0.00,,,0.00,meteohub,2013-09-10 10:51:00,
2013-09-10 05:57:00,73.8,65.3,29.33,SW,223,0.0,5.0,75,0.00,,,0.00,meteohub,2013-09-10 10:57:00,
2013-09-10 06:02:00,73.8,65.3,29.33,SSW,208,0.0,5.0,75,0.00,,,0.00,meteohub,2013-09-10 11:02:00,
2013-09-10 06:07:00,73.6,65.1,29.33,SSW,211,0.0,6.0,75,0.00,,,0.00,meteohub,2013-09-10 11:07:00,
2013-09-10 06:12:00,73.6,65.1,29.33,SW,229,1.0,6.0,75,0.00,,,0.00,meteohub,2013-09-10 11:12:00,
2013-09-10 06:17:00,73.6,65.1,29.34,SSW,209,0.0,6.0,75,0.00,,,0.00,meteohub,2013-09-10 11:17:00,
2013-09-10 06:22:00,73.6,65.5,29.33,SSW,213,1.0,6.0,76,0.00,,,0.00,meteohub,2013-09-10 11:22:00,
2013-09-10 06:27:00,73.6,65.5,29.34,SW,229,0.0,5.0,76,0.00,,,0.00,meteohub,2013-09-10 11:27:00,
2013-09-10 06:32:00,73.6,65.5,29.34,SW,219,0.0,5.0,76,0.00,,,0.00,meteohub,2013-09-10 11:32:00,
2013-09-10 06:37:00,73.6,65.5,29.34,SW,217,1.0,5.0,76,0.00,,,0.00,meteohub,2013-09-10 11:37:00,
2013-09-10 06:42:00,73.6,65.5,29.34,SW,217,0.0,4.0,76,0.00,,,0.00,meteohub,2013-09-10 11:42:00,
2013-09-10 06:47:00,73.6,65.5,29.34,SW,217,0.0,3.0,76,0.00,,,0.00,meteohub,2013-09-10 11:47:00,
2013-09-10 06:52:00,73.4,65.3,29.34,SSW,202,0.0,4.0,76,0.00,,,0.00,meteohub,2013-09-10 11:52:00,
2013-09-10 06:57:00,73.6,65.5,29.35,SSW,205,0.0,4.0,76,0.00,,,0.00,meteohub,2013-09-10 11:57:00,
2013-09-10 07:02:00,73.6,65.5,29.35,SSW,206,0.0,4.0,76,0.00,,,0.00,meteohub,2013-09-10 12:02:00,
2013-09-10 07:07:00,73.6,65.5,29.35,SSW,207,0.0,3.0,76,0.00,,,0.00,meteohub,2013-09-10 12:07:00,
2013-09-10 07:12:00,73.6,65.5,29.35,SSW,207,0.0,2.0,76,0.00,,,0.00,meteohub,2013-09-10 12:12:00,
2013-09-10 07:17:00,73.8,65.7,29.35,SSW,211,0.0,2.0,76,0.00,,,0.00,meteohub,2013-09-10 12:17:00,
2013-09-10 07:22:00,73.9,65.8,29.35,SW,215,0.0,4.0,76,0.00,,,0.00,meteohub,2013-09-10 12:22:00,
2013-09-10 07:27:00,74.1,66.0,29.36,SW,220,0.0,4.0,76,0.00,,,0.00,meteohub,2013-09-10 12:27:00,
2013-09-10 07:32:00,74.3,66.2,29.36,SW,215,6.0,6.0,76,0.00,,,0.00,meteohub,2013-09-10 12:32:00,
2013-09-10 07:38:00,74.5,66.4,29.36,SW,216,0.0,6.0,76,0.00,,,0.00,meteohub,2013-09-10 12:38:00,
2013-09-10 07:43:00,74.7,66.6,29.36,SSW,211,0.0,6.0,76,0.00,,,0.00,meteohub,2013-09-10 12:43:00,
2013-09-10 07:48:00,74.8,66.4,29.36,SSW,211,0.0,6.0,75,0.00,,,0.00,meteohub,2013-09-10 12:48:00,
2013-09-10 07:53:00,75.0,66.6,29.36,SW,226,0.0,4.0,75,0.00,,,0.00,meteohub,2013-09-10 12:53:00,
2013-09-10 07:58:00,75.2,66.7,29.37,SW,219,0.0,3.0,75,0.00,,,0.00,meteohub,2013-09-10 12:58:00,
2013-09-10 08:03:00,75.6,67.1,29.37,SW,218,0.0,4.0,75,0.00,,,0.00,meteohub,2013-09-10 13:03:00,
2013-09-10 08:08:00,75.9,67.1,29.37,WSW,237,0.0,4.0,74,0.00,,,0.00,meteohub,2013-09-10 13:08:00,
2013-09-10 08:13:00,76.5,67.6,29.37,SW,227,0.0,6.0,74,0.00,,,0.00,meteohub,2013-09-10 13:13:00,
2013-09-10 08:18:00,76.8,67.5,29.37,SW,223,2.0,6.0,73,0.00,,,0.00,meteohub,2013-09-10 13:18:00,
2013-09-10 08:23:00,77.4,68.0,29.37,WSW,249,5.0,6.0,73,0.00,,,0.00,meteohub,2013-09-10 13:23:00,
2013-09-10 08:28:00,77.7,68.0,29.37,SW,221,0.0,7.0,72,0.00,,,0.00,meteohub,2013-09-10 13:28:00,
2013-09-10 08:33:00,78.3,68.0,29.37,SW,229,5.0,7.0,71,0.00,,,0.00,meteohub,2013-09-10 13:33:00,
2013-09-10 08:38:00,78.8,68.2,29.37,SSW,192,1.0,7.0,70,0.00,,,0.00,meteohub,2013-09-10 13:38:00,
2013-09-10 08:43:00,79.3,68.4,29.37,SW,233,0.0,9.0,69,0.00,,,0.00,meteohub,2013-09-10 13:43:00,
2013-09-10 08:48:00,79.9,68.4,29.37,SSW,213,0.0,9.0,68,0.00,,,0.00,meteohub,2013-09-10 13:48:00,
2013-09-10 08:53:00,80.4,68.5,29.37,SW,232,10.0,10.0,67,0.00,,,0.00,meteohub,2013-09-10 13:53:00,
2013-09-10 08:58:00,80.8,68.4,29.37,SW,222,3.0,11.0,66,0.00,,,0.00,meteohub,2013-09-10 13:58:00,
2013-09-10 09:03:00,81.1,68.7,29.37,WSW,241,4.0,11.0,66,0.00,,,0.00,meteohub,2013-09-10 14:03:00,
2013-09-10 09:08:00,81.7,68.7,29.37,SW,214,0.0,11.0,65,0.00,,,0.00,meteohub,2013-09-10 14:08:00,
2013-09-10 09:13:00,82.0,68.7,29.37,WSW,248,0.0,11.0,64,0.00,,,0.00,meteohub,2013-09-10 14:13:00,
2013-09-10 09:18:00,82.4,69.1,29.37,SW,236,3.0,11.0,64,0.00,,,0.00,meteohub,2013-09-10 14:18:00,
2013-09-10 09:23:00,82.9,69.1,29.37,WSW,257,5.0,9.0,63,0.00,,,0.00,meteohub,2013-09-10 14:23:00,
2013-09-10 09:28:00,83.5,69.1,29.37,WSW,247,3.0,9.0,62,0.00,,,0.00,meteohub,2013-09-10 14:28:00,
2013-09-10 09:33:00,83.7,68.7,29.38,SSW,198,5.0,11.0,61,0.00,,,0.00,meteohub,2013-09-10 14:33:00,
2013-09-10 09:38:00,83.8,68.9,29.37,WSW,257,0.0,12.0,61,0.00,,,0.00,meteohub,2013-09-10 14:38:00,
2013-09-10 09:43:00,84.7,69.3,29.38,SW,227,0.0,12.0,60,0.00,,,0.00,meteohub,2013-09-10 14:43:00,
2013-09-10 09:48:00,85.5,69.1,29.37,SW,228,3.0,12.0,58,0.00,,,0.00,meteohub,2013-09-10 14:48:00,
2013-09-10 09:53:00,85.6,69.1,29.37,SW,224,1.0,9.0,58,0.00,,,0.00,meteohub,2013-09-10 14:53:00,
2013-09-10 09:58:00,85.8,69.3,29.37,SSW,213,0.0,11.0,58,0.00,,,0.00,meteohub,2013-09-10 14:58:00,
2013-09-10 10:04:00,86.4,69.3,29.38,SW,214,4.0,11.0,57,0.00,,,0.00,meteohub,2013-09-10 15:04:00,
2013-09-10 10:09:00,86.9,69.8,29.38,WSW,241,2.0,11.0,57,0.00,,,0.00,meteohub,2013-09-10 15:09:00,
2013-09-10 10:14:00,87.3,69.6,29.38,SW,225,7.0,11.0,56,0.00,,,0.00,meteohub,2013-09-10 15:14:00,
2013-09-10 10:19:00,87.6,69.4,29.38,SW,229,4.0,7.0,55,0.00,,,0.00,meteohub,2013-09-10 15:19:00,
2013-09-10 10:24:00,88.0,69.3,29.38,SSW,213,0.0,13.0,54,0.00,,,0.00,meteohub,2013-09-10 15:24:00,
2013-09-10 10:29:00,88.2,68.9,29.38,WSW,237,5.0,13.0,53,0.00,,,0.00,meteohub,2013-09-10 15:29:00,
2013-09-10 10:34:00,88.5,69.3,29.38,WSW,238,4.0,11.0,53,0.00,,,0.00,meteohub,2013-09-10 15:34:00,
2013-09-10 10:39:00,88.9,68.9,29.38,WSW,255,5.0,11.0,52,0.00,,,0.00,meteohub,2013-09-10 15:39:00,
2013-09-10 10:44:00,89.2,69.3,29.38,West,273,0.0,11.0,52,0.00,,,0.00,meteohub,2013-09-10 15:44:00,
2013-09-10 10:49:00,90.0,68.9,29.38,WSW,245,10.0,13.0,50,0.00,,,0.00,meteohub,2013-09-10 15:49:00,
2013-09-10 10:54:00,90.1,68.4,29.38,SW,217,6.0,14.0,49,0.00,,,0.00,meteohub,2013-09-10 15:54:00,
2013-09-10 10:59:00,90.3,68.0,29.38,SSW,213,3.0,14.0,48,0.00,,,0.00,meteohub,2013-09-10 15:59:00,
2013-09-10 11:04:00,90.3,68.0,29.38,WSW,255,6.0,14.0,48,0.00,,,0.00,meteohub,2013-09-10 16:04:00,
2013-09-10 11:09:00,90.5,67.5,29.38,SW,235,5.0,14.0,47,0.00,,,0.00,meteohub,2013-09-10 16:09:00,
2013-09-10 11:14:00,90.9,67.8,29.38,WSW,258,5.0,14.0,47,0.00,,,0.00,meteohub,2013-09-10 16:14:00,
2013-09-10 11:19:00,91.2,67.5,29.37,WSW,253,6.0,12.0,46,0.00,,,0.00,meteohub,2013-09-10 16:19:00,
2013-09-10 11:24:00,91.6,67.8,29.37,West,263,10.0,12.0,46,0.00,,,0.00,meteohub,2013-09-10 16:24:00,
2013-09-10 11:29:00,91.9,68.2,29.37,WSW,240,7.0,12.0,46,0.00,,,0.00,meteohub,2013-09-10 16:29:00,
2013-09-10 11:34:00,92.5,68.0,29.37,WSW,250,8.0,11.0,45,0.00,,,0.00,meteohub,2013-09-10 16:34:00,
2013-09-10 11:39:00,92.8,67.1,29.37,West,263,9.0,15.0,43,0.00,,,0.00,meteohub,2013-09-10 16:39:00,
2013-09-10 11:44:00,93.0,66.6,29.37,West,262,6.0,15.0,42,0.00,,,0.00,meteohub,2013-09-10 16:44:00,
2013-09-10 11:49:00,93.0,66.6,29.37,SW,229,4.0,15.0,42,0.00,,,0.00,meteohub,2013-09-10 16:49:00,
2013-09-10 11:54:00,93.2,66.7,29.37,WSW,240,8.0,16.0,42,0.00,,,0.00,meteohub,2013-09-10 16:54:00,
2013-09-10 12:01:00,93.4,66.2,29.37,WSW,246,5.0,16.0,41,0.00,,,0.00,meteohub,2013-09-10 17:01:00,
2013-09-10 12:06:00,93.6,66.4,29.37,WSW,246,6.0,18.0,41,0.00,,,0.00,meteohub,2013-09-10 17:06:00,
2013-09-10 12:11:00,93.9,65.8,29.37,WSW,252,5.0,20.0,40,0.00,,,0.00,meteohub,2013-09-10 17:11:00,
2013-09-10 12:16:00,94.1,66.0,29.37,NW,305,6.0,20.0,40,0.00,,,0.00,meteohub,2013-09-10 17:16:00,
2013-09-10 12:21:00,94.3,66.2,29.37,SSW,213,0.0,20.0,40,0.00,,,0.00,meteohub,2013-09-10 17:21:00,
2013-09-10 12:26:00,94.1,65.3,29.36,SW,227,6.0,17.0,39,0.00,,,0.00,meteohub,2013-09-10 17:26:00,
2013-09-10 12:31:00,94.1,66.0,29.37,West,265,1.0,17.0,40,0.00,,,0.00,meteohub,2013-09-10 17:31:00,
2013-09-10 12:36:00,94.6,65.8,29.37,West,279,9.0,17.0,39,0.00,,,0.00,meteohub,2013-09-10 17:36:00,
2013-09-10 12:42:00,94.8,65.3,29.36,WSW,239,19.0,19.0,38,0.00,,,0.00,meteohub,2013-09-10 17:42:00,
2013-09-10 12:47:00,94.8,65.3,29.36,WSW,253,7.0,24.0,38,0.00,,,0.00,meteohub,2013-09-10 17:47:00,
2013-09-10 12:52:00,94.8,64.4,29.36,SSW,196,4.0,24.0,37,0.00,,,0.00,meteohub,2013-09-10 17:52:00,
2013-09-10 12:57:00,95.2,64.8,29.36,SSE,166,10.0,24.0,37,0.00,,,0.00,meteohub,2013-09-10 17:57:00,
2013-09-10 13:02:00,94.8,65.3,29.36,SW,236,5.0,18.0,38,0.00,,,0.00,meteohub,2013-09-10 18:02:00,
2013-09-10 13:07:00,95.2,64.8,29.36,SW,229,11.0,18.0,37,0.00,,,0.00,meteohub,2013-09-10 18:07:00,
2013-09-10 13:12:00,95.5,64.4,29.36,SW,228,12.0,18.0,36,0.00,,,0.00,meteohub,2013-09-10 18:12:00,
2013-09-10 13:17:00,95.2,64.0,29.36,WSW,249,15.0,18.0,36,0.00,,,0.00,meteohub,2013-09-10 18:17:00,
2013-09-10 13:22:00,94.6,63.5,29.36,WSW,258,12.0,18.0,36,0.00,,,0.00,meteohub,2013-09-10 18:22:00,
2013-09-10 13:27:00,94.8,63.7,29.36,SW,221,6.0,18.0,36,0.00,,,0.00,meteohub,2013-09-10 18:27:00,
2013-09-10 13:32:00,94.6,64.4,29.36,WSW,238,0.0,20.0,37,0.00,,,0.00,meteohub,2013-09-10 18:32:00,
2013-09-10 13:37:00,95.4,63.3,29.35,SSE,160,1.0,20.0,35,0.00,,,0.00,meteohub,2013-09-10 18:37:00,
2013-09-10 13:42:00,96.4,64.4,29.35,South,180,12.0,20.0,35,0.00,,,0.00,meteohub,2013-09-10 18:42:00,
2013-09-10 13:47:00,96.4,64.4,29.35,WSW,257,10.0,19.0,35,0.00,,,0.00,meteohub,2013-09-10 18:47:00,
2013-09-10 13:52:00,95.9,64.6,29.35,West,275,5.0,19.0,36,0.00,,,0.00,meteohub,2013-09-10 18:52:00,
2013-09-10 13:57:00,95.5,63.5,29.35,West,266,10.0,19.0,35,0.00,,,0.00,meteohub,2013-09-10 18:57:00,
2013-09-10 14:02:00,95.4,63.3,29.35,WSW,246,7.0,21.0,35,0.00,,,0.00,meteohub,2013-09-10 19:02:00,
2013-09-10 14:08:00,95.5,63.5,29.35,SW,217,2.0,21.0,35,0.00,,,0.00,meteohub,2013-09-10 19:08:00,
2013-09-10 14:13:00,95.7,64.4,29.35,SW,231,3.0,21.0,36,0.00,,,0.00,meteohub,2013-09-10 19:13:00,
2013-09-10 14:18:00,95.5,63.5,29.35,WSW,238,0.0,17.0,35,0.00,,,0.00,meteohub,2013-09-10 19:18:00,
2013-09-10 14:23:00,96.1,64.0,29.34,SW,232,0.0,17.0,35,0.00,,,0.00,meteohub,2013-09-10 19:23:00,
2013-09-10 14:28:00,95.5,64.4,29.34,WNW,295,5.0,17.0,36,0.00,,,0.00,meteohub,2013-09-10 19:28:00,
2013-09-10 14:33:00,95.5,64.4,29.34,WNW,288,3.0,15.0,36,0.00,,,0.00,meteohub,2013-09-10 19:33:00,
2013-09-10 14:38:00,95.7,64.4,29.34,WSW,239,10.0,15.0,36,0.00,,,0.00,meteohub,2013-09-10 19:38:00,
2013-09-10 14:43:00,95.7,63.7,29.34,SW,235,6.0,15.0,35,0.00,,,0.00,meteohub,2013-09-10 19:43:00,
2013-09-10 14:48:00,95.4,64.2,29.34,SW,217,6.0,16.0,36,0.00,,,0.00,meteohub,2013-09-10 19:48:00,
2013-09-10 14:53:00,95.5,64.4,29.34,SSW,210,6.0,16.0,36,0.00,,,0.00,meteohub,2013-09-10 19:53:00,
2013-09-10 14:58:00,95.5,64.4,29.34,SW,235,3.0,19.0,36,0.00,,,0.00,meteohub,2013-09-10 19:58:00,
2013-09-10 15:03:00,95.7,64.4,29.34,WSW,238,5.0,19.0,36,0.00,,,0.00,meteohub,2013-09-10 20:03:00,
2013-09-10 15:08:00,96.3,64.2,29.34,WSW,243,1.0,19.0,35,0.00,,,0.00,meteohub,2013-09-10 20:08:00,
2013-09-10 15:14:00,96.1,64.0,29.33,SSE,150,4.0,15.0,35,0.00,,,0.00,meteohub,2013-09-10 20:14:00,
2013-09-10 15:19:00,96.3,63.3,29.33,WSW,237,11.0,15.0,34,0.00,,,0.00,meteohub,2013-09-10 20:19:00,
2013-09-10 15:24:00,96.3,62.4,29.33,SW,218,12.0,14.0,33,0.00,,,0.00,meteohub,2013-09-10 20:24:00,
2013-09-10 15:29:00,96.4,63.5,29.33,WSW,241,6.0,19.0,34,0.00,,,0.00,meteohub,2013-09-10 20:29:00,
2013-09-10 15:34:00,96.3,63.3,29.33,SSW,192,2.0,19.0,34,0.00,,,0.00,meteohub,2013-09-10 20:34:00,
2013-09-10 15:39:00,95.9,63.9,29.33,SW,229,6.0,20.0,35,0.00,,,0.00,meteohub,2013-09-10 20:39:00,
2013-09-10 15:44:00,96.1,64.0,29.32,SW,215,0.0,20.0,35,0.00,,,0.00,meteohub,2013-09-10 20:44:00,
2013-09-10 15:49:00,96.3,64.2,29.32,WSW,253,3.0,20.0,35,0.00,,,0.00,meteohub,2013-09-10 20:49:00,
2013-09-10 15:54:00,96.6,63.7,29.33,West,259,9.0,14.0,34,0.00,,,0.00,meteohub,2013-09-10 20:54:00,
2013-09-10 15:59:00,96.8,63.9,29.32,SE,130,3.0,14.0,34,0.00,,,0.00,meteohub,2013-09-10 20:59:00,
2013-09-10 16:04:00,96.6,63.7,29.32,WSW,256,6.0,14.0,34,0.00,,,0.00,meteohub,2013-09-10 21:04:00,
2013-09-10 16:09:00,96.8,63.9,29.32,SW,236,10.0,15.0,34,0.00,,,0.00,meteohub,2013-09-10 21:09:00,
2013-09-10 16:14:00,96.6,63.7,29.32,SW,234,11.0,21.0,34,0.00,,,0.00,meteohub,2013-09-10 21:14:00,
2013-09-10 16:19:00,96.4,63.5,29.32,WSW,245,11.0,21.0,34,0.00,,,0.00,meteohub,2013-09-10 21:19:00,
2013-09-10 16:24:00,96.3,63.3,29.32,SW,228,7.0,21.0,34,0.00,,,0.00,meteohub,2013-09-10 21:24:00,
2013-09-10 16:29:00,96.1,63.1,29.32,SW,234,17.0,18.0,34,0.00,,,0.00,meteohub,2013-09-10 21:29:00,
2013-09-10 16:34:00,96.1,63.1,29.31,SW,217,2.0,18.0,34,0.00,,,0.00,meteohub,2013-09-10 21:34:00,
2013-09-10 16:39:00,96.1,64.0,29.31,SSW,201,5.0,17.0,35,0.00,,,0.00,meteohub,2013-09-10 21:39:00,
2013-09-10 16:44:00,95.7,63.7,29.31,SW,221,14.0,17.0,35,0.00,,,0.00,meteohub,2013-09-10 21:44:00,
2013-09-10 16:50:00,95.4,63.3,29.31,WSW,256,5.0,17.0,35,0.00,,,0.00,meteohub,2013-09-10 21:50:00,
2013-09-10 16:55:00,95.0,63.1,29.31,SW,225,0.0,19.0,35,0.00,,,0.00,meteohub,2013-09-10 21:55:00,
2013-09-10 17:00:00,94.6,63.5,29.31,WSW,254,2.0,19.0,36,0.00,,,0.00,meteohub,2013-09-10 22:00:00,
2013-09-10 17:05:00,94.6,63.5,29.31,SW,217,7.0,16.0,36,0.00,,,0.00,meteohub,2013-09-10 22:05:00,
2013-09-10 17:10:00,95.2,64.0,29.31,WNW,285,7.0,16.0,36,0.00,,,0.00,meteohub,2013-09-10 22:10:00,
2013-09-10 17:15:00,95.4,64.2,29.30,SW,228,0.0,16.0,36,0.00,,,0.00,meteohub,2013-09-10 22:15:00,
2013-09-10 17:21:00,95.5,64.4,29.31,WSW,238,11.0,15.0,36,0.00,,,0.00,meteohub,2013-09-10 22:21:00,
2013-09-10 17:26:00,95.2,64.0,29.31,WSW,250,5.0,22.0,36,0.00,,,0.00,meteohub,2013-09-10 22:26:00,
2013-09-10 17:31:00,94.6,63.5,29.31,SW,214,1.0,22.0,36,0.00,,,0.00,meteohub,2013-09-10 22:31:00,
2013-09-10 17:36:00,94.6,64.4,29.31,SW,217,9.0,22.0,37,0.00,,,0.00,meteohub,2013-09-10 22:36:00,
2013-09-10 17:42:00,94.6,64.4,29.31,WSW,238,1.0,14.0,37,0.00,,,0.00,meteohub,2013-09-10 22:42:00,
2013-09-10 17:47:00,94.6,64.4,29.31,SW,232,9.0,16.0,37,0.00,,,0.00,meteohub,2013-09-10 22:47:00,
2013-09-10 17:52:00,94.6,64.4,29.31,SW,215,0.0,16.0,37,0.00,,,0.00,meteohub,2013-09-10 22:52:00,
2013-09-10 17:57:00,94.5,64.2,29.31,SW,221,3.0,16.0,37,0.00,,,0.00,meteohub,2013-09-10 22:57:00,
2013-09-10 18:02:00,94.5,64.2,29.31,WSW,257,0.0,15.0,37,0.00,,,0.00,meteohub,2013-09-10 23:02:00,
2013-09-10 18:07:00,94.5,64.2,29.31,SW,224,7.0,12.0,37,0.00,,,0.00,meteohub,2013-09-10 23:07:00,
2013-09-10 18:12:00,94.3,64.0,29.32,SW,227,7.0,14.0,37,0.00,,,0.00,meteohub,2013-09-10 23:12:00,
2013-09-10 18:17:00,94.1,63.9,29.32,WSW,252,11.0,14.0,37,0.00,,,0.00,meteohub,2013-09-10 23:17:00,
2013-09-10 18:22:00,93.9,63.7,29.32,WSW,243,0.0,12.0,37,0.00,,,0.00,meteohub,2013-09-10 23:22:00,
2013-09-10 18:27:00,93.7,64.2,29.32,SW,227,7.0,12.0,38,0.00,,,0.00,meteohub,2013-09-10 23:27:00,
2013-09-10 18:32:00,93.4,64.0,29.32,South,184,4.0,12.0,38,0.00,,,0.00,meteohub,2013-09-10 23:32:00,
2013-09-10 18:37:00,93.2,63.9,29.32,SW,228,5.0,12.0,38,0.00,,,0.00,meteohub,2013-09-10 23:37:00,
2013-09-10 18:42:00,93.0,64.4,29.32,WSW,238,4.0,11.0,39,0.00,,,0.00,meteohub,2013-09-10 23:42:00,
2013-09-10 18:47:00,92.7,64.8,29.32,SW,235,1.0,11.0,40,0.00,,,0.00,meteohub,2013-09-10 23:47:00,
2013-09-10 18:52:00,92.5,64.6,29.32,SW,232,0.0,11.0,40,0.00,,,0.00,meteohub,2013-09-10 23:52:00,
2013-09-10 18:57:00,92.1,64.4,29.32,SW,232,0.0,9.0,40,0.00,,,0.00,meteohub,2013-09-10 23:57:00,
2013-09-10 19:02:00,91.8,64.8,29.32,SW,235,2.0,7.0,41,0.00,,,0.00,meteohub,2013-09-11 00:02:00,
2013-09-10 19:07:00,91.6,64.6,29.33,SW,234,6.0,6.0,41,0.00,,,0.00,meteohub,2013-09-11 00:07:00,
2013-09-10 19:12:00,91.0,64.8,29.33,SSW,196,0.0,6.0,42,0.00,,,0.00,meteohub,2013-09-11 00:12:00,
2013-09-10 19:17:00,90.9,64.6,29.33,SW,221,0.0,6.0,42,0.00,,,0.00,meteohub,2013-09-11 00:17:00,
2013-09-10 19:22:00,90.3,64.8,29.33,SSW,212,0.0,6.0,43,0.00,,,0.00,meteohub,2013-09-11 00:22:00,
2013-09-10 19:27:00,90.1,64.6,29.33,SSW,205,0.0,5.0,43,0.00,,,0.00,meteohub,2013-09-11 00:27:00,
2013-09-10 19:32:00,89.8,64.9,29.33,SW,214,2.0,6.0,44,0.00,,,0.00,meteohub,2013-09-11 00:32:00,
2013-09-10 19:37:00,89.4,64.6,29.33,SW,217,2.0,6.0,44,0.00,,,0.00,meteohub,2013-09-11 00:37:00,
2013-09-10 19:43:00,89.2,64.4,29.33,SSW,207,0.0,5.0,44,0.00,,,0.00,meteohub,2013-09-11 00:43:00,
2013-09-10 19:48:00,88.9,64.8,29.33,SSW,208,0.0,5.0,45,0.00,,,0.00,meteohub,2013-09-11 00:48:00,
2013-09-10 19:53:00,88.5,64.4,29.34,SSW,204,0.0,5.0,45,0.00,,,0.00,meteohub,2013-09-11 00:53:00,
2013-09-10 19:58:00,88.3,64.2,29.34,SSW,205,2.0,7.0,45,0.00,,,0.00,meteohub,2013-09-11 00:58:00,
2013-09-10 20:03:00,88.2,64.8,29.34,SSW,202,0.0,7.0,46,0.00,,,0.00,meteohub,2013-09-11 01:03:00,
2013-09-10 20:08:00,87.6,64.2,29.34,SSW,196,0.0,7.0,46,0.00,,,0.00,meteohub,2013-09-11 01:08:00,
2013-09-10 20:13:00,87.4,64.8,29.34,SSW,198,0.0,4.0,47,0.00,,,0.00,meteohub,2013-09-11 01:13:00,
2013-09-10 20:18:00,87.3,64.6,29.34,SSW,201,0.0,4.0,47,0.00,,,0.00,meteohub,2013-09-11 01:18:00,
2013-09-10 20:23:00,87.1,64.4,29.35,SW,215,0.0,4.0,47,0.00,,,0.00,meteohub,2013-09-11 01:23:00,
2013-09-10 20:28:00,86.7,64.8,29.35,SW,216,0.0,4.0,48,0.00,,,0.00,meteohub,2013-09-11 01:28:00,
2013-09-10 20:33:00,86.5,64.6,29.35,SW,216,0.0,4.0,48,0.00,,,0.00,meteohub,2013-09-11 01:33:00,
2013-09-10 20:38:00,86.4,64.4,29.35,SSW,208,0.0,3.0,48,0.00,,,0.00,meteohub,2013-09-11 01:38:00,
2013-09-10 20:43:00,86.2,64.2,29.35,SSW,198,0.0,4.0,48,0.00,,,0.00,meteohub,2013-09-11 01:43:00,
2013-09-10 20:48:00,85.8,64.4,29.36,SSW,200,0.0,4.0,49,0.00,,,0.00,meteohub,2013-09-11 01:48:00,
2013-09-10 20:53:00,85.6,64.2,29.36,SSW,199,0.0,4.0,49,0.00,,,0.00,meteohub,2013-09-11 01:53:00,
2013-09-10 20:58:00,85.5,64.0,29.36,SSW,197,0.0,4.0,49,0.00,,,0.00,meteohub,2013-09-11 01:58:00,
2013-09-10 21:03:00,85.3,64.6,29.36,SSW,198,0.0,3.0,50,0.00,,,0.00,meteohub,2013-09-11 02:03:00,
2013-09-10 21:08:00,84.9,64.2,29.36,SSW,197,1.0,3.0,50,0.00,,,0.00,meteohub,2013-09-11 02:08:00,
2013-09-10 21:13:00,84.7,64.6,29.36,SSW,194,0.0,3.0,51,0.00,,,0.00,meteohub,2013-09-11 02:13:00,
2013-09-10 21:18:00,84.6,64.4,29.37,SSW,194,0.0,4.0,51,0.00,,,0.00,meteohub,2013-09-11 02:18:00,
2013-09-10 21:23:00,84.4,64.2,29.37,South,189,2.0,4.0,51,0.00,,,0.00,meteohub,2013-09-11 02:23:00,
2013-09-10 21:28:00,84.2,64.6,29.37,South,189,0.0,5.0,52,0.00,,,0.00,meteohub,2013-09-11 02:28:00,
2013-09-10 21:33:00,84.0,64.6,29.37,SSW,202,0.0,5.0,52,0.00,,,0.00,meteohub,2013-09-11 02:33:00,
2013-09-10 21:38:00,83.8,64.4,29.37,SSW,209,0.0,5.0,52,0.00,,,0.00,meteohub,2013-09-11 02:38:00,
2013-09-10 21:43:00,83.7,64.2,29.38,SSW,209,0.0,3.0,52,0.00,,,0.00,meteohub,2013-09-11 02:43:00,
2013-09-10 21:48:00,83.5,64.6,29.37,SSW,207,0.0,3.0,53,0.00,,,0.00,meteohub,2013-09-11 02:48:00,
2013-09-10 21:54:00,83.1,64.2,29.37,SSW,196,1.0,3.0,53,0.00,,,0.00,meteohub,2013-09-11 02:54:00,
2013-09-10 21:59:00,82.8,64.4,29.37,SSW,200,0.0,5.0,54,0.00,,,0.00,meteohub,2013-09-11 02:59:00,
2013-09-10 22:04:00,82.4,64.0,29.38,SSW,193,1.0,5.0,54,0.00,,,0.00,meteohub,2013-09-11 03:04:00,
2013-09-10 22:09:00,82.0,64.2,29.38,SSW,196,0.0,5.0,55,0.00,,,0.00,meteohub,2013-09-11 03:09:00,
2013-09-10 22:14:00,81.9,64.0,29.38,South,179,0.0,4.0,55,0.00,,,0.00,meteohub,2013-09-11 03:14:00,
2013-09-10 22:19:00,81.7,64.4,29.38,SW,232,0.0,3.0,56,0.00,,,0.00,meteohub,2013-09-11 03:19:00,
2013-09-10 22:24:00,81.3,64.6,29.38,SSW,205,0.0,6.0,57,0.00,,,0.00,meteohub,2013-09-11 03:24:00,
2013-09-10 22:29:00,81.1,64.4,29.38,SSW,205,2.0,6.0,57,0.00,,,0.00,meteohub,2013-09-11 03:29:00,
2013-09-10 22:34:00,81.0,64.8,29.38,SW,217,0.0,6.0,58,0.00,,,0.00,meteohub,2013-09-11 03:34:00,
2013-09-10 22:39:00,80.6,64.4,29.38,SW,217,3.0,5.0,58,0.00,,,0.00,meteohub,2013-09-11 03:39:00,
2013-09-10 22:44:00,80.4,64.8,29.38,SW,215,1.0,6.0,59,0.00,,,0.00,meteohub,2013-09-11 03:44:00,
2013-09-10 22:49:00,80.4,64.8,29.38,SW,214,0.0,6.0,59,0.00,,,0.00,meteohub,2013-09-11 03:49:00,
2013-09-10 22:54:00,80.2,64.6,29.39,SW,217,1.0,5.0,59,0.00,,,0.00,meteohub,2013-09-11 03:54:00,
2013-09-10 22:59:00,80.1,64.9,29.38,SSW,200,0.0,5.0,60,0.00,,,0.00,meteohub,2013-09-11 03:59:00,
2013-09-10 23:01:00,80.1,64.9,29.38,SSW,200,0.0,5.0,60,0.00,,,0.00,meteohub,2013-09-11 04:01:00,
2013-09-10 23:02:00,80.1,64.9,29.38,SSW,201,0.0,5.0,60,0.00,,,0.00,meteohub,2013-09-11 04:02:00,
2013-09-10 23:03:00,80.1,64.9,29.39,SSW,200,0.0,5.0,60,0.00,,,0.00,meteohub,2013-09-11 04:03:00,
2013-09-10 23:08:00,79.9,64.8,29.39,SSW,211,0.0,5.0,60,0.00,,,0.00,meteohub,2013-09-11 04:08:00,
2013-09-10 23:13:00,79.7,65.1,29.39,SSW,211,0.0,4.0,61,0.00,,,0.00,meteohub,2013-09-11 04:13:00,
2013-09-10 23:18:00,79.5,64.9,29.39,SSW,207,0.0,3.0,61,0.00,,,0.00,meteohub,2013-09-11 04:18:00,
2013-09-10 23:23:00,79.3,64.8,29.39,SW,217,0.0,3.0,61,0.00,,,0.00,meteohub,2013-09-11 04:23:00,
2013-09-10 23:28:00,79.3,64.8,29.39,SW,217,0.0,3.0,61,0.00,,,0.00,meteohub,2013-09-11 04:28:00,
2013-09-10 23:33:00,79.3,64.8,29.39,SW,215,1.0,3.0,61,0.00,,,0.00,meteohub,2013-09-11 04:33:00,
2013-09-10 23:38:00,79.3,64.8,29.39,SW,215,0.0,3.0,61,0.00,,,0.00,meteohub,2013-09-11 04:38:00,
2013-09-10 23:43:00,79.3,64.8,29.38,SW,215,3.0,3.0,61,0.00,,,0.00,meteohub,2013-09-11 04:43:00,
2013-09-10 23:48:00,79.2,64.6,29.39,SSW,210,0.0,3.0,61,0.00,,,0.00,meteohub,2013-09-11 04:48:00,
2013-09-10 23:53:00,79.2,64.9,29.38,SSW,211,0.0,4.0,62,0.00,,,0.00,meteohub,2013-09-11 04:53:00,
2013-09-10 23:58:00,79.0,64.8,29.38,SSW,196,0.0,4.0,62,0.00,,,0.00,meteohub,2013-09-11 04:58:00,